CW6872 Weather Reports


time (UTC)temp
F
wind
direction
speed
knots
gust
knots
rain 1hr
in
rain 24hr
in
rain mn
in
humidity
%
barometer
mb
20260503215016 60 277 2.6 12.2 0.00 0.00 0.00 27 1010.7
20260503214540 60 311 2.6 10.4 0.00 0.00 0.00 28 1010.6
20260503214019 61 14 1.7 9.6 0.00 0.00 0.00 28 1010.6
20260503213518 60 0 0.9 13.9 0.00 0.00 0.00 30 1010.5
20260503213039 60 284 2.6 13.9 0.00 0.00 0.00 27 1010.6
20260503212521 61 263 3.5 13.9 0.00 0.00 0.00 27 1010.6
20260503212018 60 0 1.7 10.4 0.00 0.00 0.00 27 1010.3
20260503211542 60 262 0.9 12.2 0.00 0.00 0.00 29 1010.4
20260503211020 59 5 0.9 16.5 0.00 0.00 0.00 29 1010.5
20260503210517 59 5 4.3 16.5 0.00 0.00 0.00 27 1010.7
20260503210039 60 276 2.6 14.8 0.00 0.00 0.00 27 1010.7
20260503205518 60 360 3.5 13.9 0.00 0.00 0.00 27 1010.6
20260503205017 60 296 2.6 13.0 0.00 0.00 0.00 30 1010.5
20260503204537 60 306 4.3 13.0 0.00 0.00 0.00 27 1010.5
20260503204019 60 321 3.5 13.0 0.00 0.00 0.00 29 1010.6
20260503203524 60 272 4.3 13.0 0.00 0.00 0.00 30 1010.7
20260503203038 60 314 3.5 13.0 0.00 0.00 0.00 30 1010.7
20260503202519 59 9 2.6 10.4 0.00 0.00 0.00 30 1010.6
20260503202016 59 321 2.6 11.3 0.00 0.00 0.00 30 1010.8
20260503201534 59 304 0.0 11.3 0.00 0.00 0.00 29 1010.8
20260503201052 59 294 3.5 13.9 0.00 0.00 0.00 28 1010.8
20260503200520 59 298 2.6 13.9 0.00 0.00 0.00 30 1011.0
20260503200033 58 321 4.3 13.9 0.00 0.00 0.00 30 1010.9
20260503195516 58 65 2.6 11.3 0.00 0.00 0.00 31 1010.9
20260503195020 58 306 2.6 11.3 0.00 0.00 0.00 30 1010.7
20260503194540 59 19 2.6 11.3 0.00 0.00 0.00 30 1011.0
20260503194020 59 30 2.6 13.9 0.00 0.00 0.00 30 1011.0
20260503193518 59 317 2.6 16.5 0.00 0.00 0.00 29 1011.0
20260503193044 59 318 7.0 16.5 0.00 0.00 0.00 29 1010.9
20260503192519 59 288 2.6 11.3 0.00 0.00 0.00 29 1011.0
20260503192018 59 0 1.7 13.0 0.00 0.00 0.00 29 1011.1
20260503191602 58 275 1.7 13.0 0.00 0.00 0.00 31 1011.3
20260503191018 58 290 4.3 13.0 0.00 0.00 0.00 28 1011.1
20260503190516 58 276 2.6 19.1 0.00 0.00 0.00 30 1011.2
20260503190036 58 314 3.5 19.1 0.00 0.00 0.00 30 1011.2
20260503185521 57 325 3.5 19.1 0.00 0.00 0.00 31 1011.3
20260503185017 58 344 1.7 10.4 0.00 0.00 0.00 30 1011.4
20260503184540 58 309 2.6 13.0 0.00 0.00 0.00 32 1011.3
20260503184017 58 329 3.5 13.0 0.00 0.00 0.00 29 1011.5
20260503183520 57 338 3.5 11.3 0.00 0.00 0.00 32 1011.4
20260503183038 56 317 1.7 12.2 0.00 0.00 0.00 36 1011.5
20260503182516 56 344 1.7 12.2 0.00 0.00 0.00 33 1011.6
20260503182017 55 271 4.3 12.2 0.00 0.00 0.00 32 1011.6
20260503181547 55 0 0.9 9.6 0.00 0.00 0.00 33 1011.7
20260503181017 56 0 0.9 12.2 0.00 0.00 0.00 33 1011.8
20260503180519 55 329 2.6 13.9 0.00 0.00 0.00 34 1011.7
20260503180039 55 290 2.6 13.9 0.00 0.00 0.00 35 1011.7
20260503175517 55 21 1.7 12.2 0.00 0.00 0.00 34 1011.7
20260503175019 55 0 2.6 13.9 0.00 0.00 0.00 33 1011.7
20260503174544 55 360 2.6 13.9 0.00 0.00 0.00 36 1011.8
20260503174017 55 284 1.7 10.4 0.00 0.00 0.00 34 1011.8
20260503173517 55 321 0.9 11.3 0.00 0.00 0.00 37 1011.8
20260503173030 55 340 0.0 11.3 0.00 0.00 0.00 39 1012.0
20260503172516 54 0 1.7 10.4 0.00 0.00 0.00 36 1011.9
20260503172016 54 319 3.5 12.2 0.00 0.00 0.00 37 1012.0
20260503171536 53 344 1.7 13.0 0.00 0.00 0.00 39 1012.0
20260503171017 53 304 2.6 13.0 0.00 0.00 0.00 37 1012.1
20260503170519 54 271 4.3 13.0 0.00 0.00 0.00 38 1012.2
20260503150518 50 33 0.9 12.2 0.00 0.00 0.00 44 1012.7
20260503131017 49 5 3.5 12.2 0.00 0.00 0.00 48 1012.5
20260503130517 49 11 1.7 7.0 0.00 0.00 0.00 50 1012.5
20260503110516 44 0 0.0 8.7 0.00 0.00 0.00 58 1012.2
20260503081540 45 0 0.0 2.6 0.00 0.00 0.00 56 1010.5
20260503081015 45 0 0.0 2.6 0.00 0.00 0.00 56 1010.5
20260503080516 45 0 0.0 0.9 0.00 0.00 0.00 55 1010.6
20260503072515 46 333 0.0 7.0 0.00 0.00 0.00 53 1010.5
20260503072017 46 0 0.0 7.0 0.00 0.00 0.00 53 1010.5
20260503071532 46 0 0.0 2.6 0.00 0.00 0.00 53 1010.5
20260503071017 46 0 0.0 2.6 0.00 0.00 0.00 53 1010.3
20260503070518 46 0 0.0 0.9 0.00 0.00 0.00 54 1010.5
20260503055020 48 0 0.0 0.0 0.00 0.00 0.00 50 1010.7
20260503054546 48 0 0.0 0.9 0.00 0.00 0.00 49 1010.9
20260503054017 48 0 0.0 2.6 0.00 0.00 0.00 48 1010.8
20260503053517 48 0 0.0 2.6 0.00 0.00 0.00 47 1010.8
20260503053031 48 0 0.0 7.0 0.00 0.00 0.00 48 1010.7
20260503052518 49 0 0.0 7.0 0.00 0.00 0.00 47 1010.7
20260503052019 49 0 0.0 5.2 0.00 0.00 0.00 47 1010.8
20260503051536 49 0 0.0 5.2 0.00 0.00 0.00 46 1010.8
20260503051017 49 27 0.0 5.2 0.00 0.00 0.00 46 1010.9
20260503050516 49 0 0.0 2.6 0.00 0.00 0.00 47 1010.8
20260503050035 49 352 0.0 2.6 0.00 0.00 0.00 46 1010.9
20260503045519 49 0 0.0 2.6 0.00 0.00 0.00 47 1011.0
20260503045017 49 0 0.0 5.2 0.00 0.00 0.00 46 1010.9
20260503044542 49 9 0.0 6.1 0.00 0.00 0.00 46 1011.0
20260503044016 49 0 0.0 6.1 0.00 0.00 0.00 46 1010.9
20260503043517 49 0 0.0 3.5 0.00 0.00 0.00 46 1011.0
20260503043045 49 350 0.0 2.6 0.00 0.00 0.00 46 1011.0
20260503042519 49 0 0.0 1.7 0.00 0.00 0.00 46 1011.2
20260503042018 49 352 0.0 1.7 0.00 0.00 0.00 46 1011.2
20260503041536 49 0 0.0 1.7 0.00 0.00 0.00 45 1011.1
20260503041020 49 0 0.0 5.2 0.00 0.00 0.00 46 1011.2
20260503040521 49 0 0.0 5.2 0.00 0.00 0.00 45 1011.2
20260503040038 49 347 0.0 1.7 0.00 0.00 0.00 45 1011.2
20260503035521 49 0 0.0 1.7 0.00 0.00 0.00 45 1011.2
20260503035020 49 0 0.0 1.7 0.00 0.00 0.00 44 1011.1
20260503034536 49 0 0.0 1.7 0.00 0.00 0.00 45 1011.2
20260503034018 49 0 0.0 2.6 0.00 0.00 0.00 45 1011.2
20260503033517 49 0 0.0 2.6 0.00 0.00 0.00 46 1011.1
20260503033041 49 0 0.0 2.6 0.00 0.00 0.00 45 1011.2
20260503032519 49 0 0.0 3.5 0.00 0.00 0.00 46 1011.1
20260503032019 49 0 0.0 3.5 0.00 0.00 0.00 45 1011.1
20260503031536 50 0 0.0 0.9 0.00 0.00 0.00 45 1011.1
20260503031019 50 0 0.0 0.9 0.00 0.00 0.00 45 1011.3
20260503030519 50 0 0.0 0.9 0.00 0.00 0.00 44 1011.3
20260503030037 50 0 0.0 0.9 0.00 0.00 0.00 44 1011.3
20260503025519 50 0 0.0 3.5 0.00 0.00 0.00 44 1011.3
20260503025018 50 0 0.0 3.5 0.00 0.00 0.00 44 1011.2
20260503024537 50 0 0.0 3.5 0.00 0.00 0.00 44 1011.1
20260503024019 51 0 0.0 3.5 0.00 0.00 0.00 42 1011.2
20260503023519 51 0 0.0 3.5 0.00 0.00 0.00 42 1011.2
20260503023047 51 0 0.0 3.5 0.00 0.00 0.00 42 1011.3
20260503022519 51 0 0.0 3.5 0.00 0.00 0.00 42 1011.2
20260503022019 51 0 0.0 2.6 0.00 0.00 0.00 42 1011.2
20260503021535 52 0 0.0 3.5 0.00 0.00 0.00 41 1011.3
20260503021019 52 0 0.0 3.5 0.00 0.00 0.00 42 1011.3
20260503020519 52 0 0.0 3.5 0.00 0.00 0.00 41 1011.2
20260503020036 52 0 0.0 3.5 0.00 0.00 0.00 42 1011.2
20260503015521 52 0 0.0 3.5 0.00 0.00 0.00 41 1011.2
20260503015018 52 0 0.0 2.6 0.00 0.00 0.00 42 1011.2
20260503014536 52 0 0.0 1.7 0.00 0.00 0.00 41 1011.2
20260503014019 53 0 0.0 1.7 0.00 0.00 0.00 42 1011.2
20260503013519 53 0 0.0 2.6 0.00 0.00 0.00 41 1011.3
20260503013040 53 0 0.0 2.6 0.00 0.00 0.00 42 1011.3
20260503012520 53 0 0.0 1.7 0.00 0.00 0.00 42 1011.3
20260503012019 53 0 0.0 1.7 0.00 0.00 0.00 42 1011.2
20260503011531 53 0 0.0 0.9 0.00 0.00 0.00 43 1011.2
20260503011019 53 0 0.0 0.9 0.00 0.00 0.00 42 1011.2
20260503010520 53 0 0.0 0.0 0.00 0.00 0.00 42 1011.1
20260503010033 53 0 0.0 0.0 0.00 0.00 0.00 42 1011.0
20260503005517 53 0 0.0 0.9 0.00 0.00 0.00 42 1010.9
20260503005018 53 0 0.0 0.9 0.00 0.00 0.00 42 1010.8
20260503004537 53 0 0.0 0.9 0.00 0.00 0.00 42 1010.7
20260503004021 53 0 0.0 0.9 0.00 0.00 0.00 42 1010.5
20260503003518 53 0 0.0 0.9 0.00 0.00 0.00 41 1010.6
20260503003044 53 0 0.0 0.9 0.00 0.00 0.00 41 1010.6
20260503002518 54 0 0.0 0.9 0.00 0.00 0.00 41 1010.5
20260503002017 54 0 0.0 0.9 0.00 0.00 0.00 41 1010.4
20260503001548 54 0 0.0 0.9 0.00 0.00 0.00 42 1010.3
20260503001020 54 0 0.0 0.9 0.00 0.00 0.00 40 1010.4
20260503000523 54 0 0.0 0.9 0.00 0.00 0.00 40 1010.5
20260503000044 54 0 0.0 1.7 0.00 0.00 0.00 40 1010.5
20260502235519 55 0 0.0 1.7 0.00 0.00 0.00 39 1010.3
20260502235020 55 0 0.0 1.7 0.00 0.00 0.00 40 1010.2
20260502234548 55 0 0.0 1.7 0.00 0.00 0.00 39 1010.3
20260502234019 55 0 0.0 0.0 0.00 0.00 0.00 40 1010.2
20260502233519 56 0 0.0 1.7 0.00 0.00 0.00 40 1010.3
20260502233041 56 0 0.0 1.7 0.00 0.00 0.00 38 1010.3
20260502232522 56 338 0.0 4.3 0.00 0.00 0.00 39 1010.4
20260502232018 56 0 0.0 7.0 0.00 0.00 0.00 38 1010.3
20260502231535 56 352 0.0 7.0 0.00 0.00 0.00 38 1010.3
20260502231018 56 336 0.0 4.3 0.00 0.00 0.00 41 1010.3
20260502230518 57 0 0.0 4.3 0.00 0.00 0.00 38 1010.2
20260502230037 56 329 0.0 4.3 0.00 0.00 0.00 38 1010.3
20260502225517 56 0 0.0 3.5 0.00 0.00 0.00 38 1010.3
20260502225017 57 0 0.0 3.5 0.00 0.00 0.00 38 1010.2
20260502224543 57 0 0.0 2.6 0.00 0.00 0.00 38 1010.2
20260502224018 57 0 0.0 3.5 0.00 0.00 0.00 38 1010.1
20260502223521 57 0 0.0 5.2 0.00 0.00 0.00 37 1010.0
20260502223040 57 0 0.0 6.1 0.00 0.00 0.00 37 1010.0
20260502222516 57 5 0.9 6.1 0.00 0.00 0.00 36 1009.9
20260502222019 57 10 0.0 7.0 0.00 0.00 0.00 36 1009.9
20260502221535 58 0 0.0 7.8 0.00 0.00 0.00 35 1010.0
20260502221019 58 285 0.9 7.8 0.00 0.00 0.00 35 1010.1
20260502220519 59 0 0.0 4.3 0.00 0.00 0.00 36 1010.1
20260502220035 59 336 0.0 4.3 0.00 0.00 0.00 35 1010.0
20260502215517 59 0 0.0 3.5 0.00 0.00 0.00 34 1010.1